| time (UTC) | temp C | wind direction | speed KPH | gust KPH | rain 1hr cm | rain 24hr cm | rain mn cm | humidity % | barometer mb |
| 20260509000733 | 7 | 315 | 1.6 | 4.8 | 0.00 | 0.00 | 0.00 | 64 | 1011.4 |
| 20260509000223 | 7 | 315 | 3.2 | 4.8 | 0.00 | 0.00 | 0.00 | 63 | 1011.2 |
| 20260508235713 | 7 | 315 | 3.2 | 4.8 | 0.00 | 0.00 | 0.00 | 63 | 1011.1 |
| 20260508235704 | 8 | 338 | 3.2 | 4.8 | 0.00 | 0.00 | 0.00 | 63 | 1011.0 |
| 20260508234656 | 8 | 315 | 3.2 | 4.8 | 0.00 | 0.00 | 0.00 | 62 | 1010.8 |
| 20260508234145 | 8 | 315 | 3.2 | 4.8 | 0.00 | 0.00 | 0.00 | 62 | 1010.6 |
| 20260508233632 | 8 | 315 | 3.2 | 4.8 | 0.00 | 0.00 | 0.00 | 61 | 1010.4 |
| 20260508233622 | 8 | 315 | 0.0 | 0.0 | 0.00 | 0.00 | 0.00 | 59 | 1010.5 |
| 20260508232612 | 8 | 45 | 0.0 | 0.0 | 0.00 | 0.00 | 0.00 | 58 | 1010.4 |
| 20260508232105 | 8 | 90 | 0.0 | 0.0 | 0.00 | 0.00 | 0.00 | 57 | 1010.2 |
| 20260508231551 | 8 | 180 | 0.0 | 4.8 | 0.00 | 0.00 | 0.00 | 58 | 1010.2 |
| 20260508231054 | 9 | 158 | 0.0 | 4.8 | 0.00 | 0.00 | 0.00 | 58 | 1010.3 |
| 20260508230531 | 9 | 135 | 0.0 | 0.0 | 0.00 | 0.00 | 0.00 | 57 | 1010.4 |
| 20260508230521 | 10 | 180 | 0.0 | 0.0 | 0.00 | 0.00 | 0.00 | 54 | 1010.4 |
| 20260508225515 | 10 | 90 | 0.0 | 0.0 | 0.00 | 0.00 | 0.00 | 52 | 1010.1 |
| 20260508225001 | 10 | 315 | 0.0 | 0.0 | 0.00 | 0.00 | 0.00 | 50 | 1010.1 |
| 20260508224451 | 10 | 315 | 0.0 | 0.0 | 0.00 | 0.00 | 0.00 | 46 | 1010.1 |
| 20260508223941 | 11 | 315 | 0.0 | 0.0 | 0.00 | 0.00 | 0.00 | 43 | 1010.3 |
| 20260508223431 | 11 | 0 | 0.0 | 3.2 | 0.00 | 0.00 | 0.00 | 42 | 1010.3 |
| 20260508222924 | 11 | 0 | 0.0 | 4.8 | 0.00 | 0.00 | 0.00 | 43 | 1010.3 |
| 20260508222410 | 11 | 338 | 0.0 | 4.8 | 0.00 | 0.00 | 0.00 | 42 | 1010.3 |
| 20260508221900 | 11 | 315 | 0.0 | 3.2 | 0.00 | 0.00 | 0.00 | 41 | 1010.3 |
| 20260508221851 | 11 | 225 | 0.0 | 3.2 | 0.00 | 0.00 | 0.00 | 41 | 1010.1 |
| 20260508220841 | 12 | 0 | 1.6 | 3.2 | 0.00 | 0.00 | 0.00 | 40 | 1010.2 |
| 20260508220835 | 12 | 0 | 0.0 | 4.8 | 0.00 | 0.00 | 0.00 | 40 | 1010.0 |
| 20260508220321 | 12 | 0 | 3.2 | 6.4 | 0.00 | 0.00 | 0.00 | 40 | 1010.1 |
| 20260508215309 | 12 | 270 | 0.0 | 6.4 | 0.00 | 0.00 | 0.00 | 39 | 1010.2 |
| 20260508214759 | 12 | 90 | 0.0 | 3.2 | 0.00 | 0.00 | 0.00 | 38 | 1010.1 |
| 20260508214249 | 12 | 0 | 0.0 | 4.8 | 0.00 | 0.00 | 0.00 | 38 | 1010.0 |
| 20260508213742 | 12 | 225 | 0.0 | 4.8 | 0.00 | 0.00 | 0.00 | 37 | 1010.1 |
| 20260508213229 | 13 | 225 | 0.0 | 3.2 | 0.00 | 0.00 | 0.00 | 37 | 1010.0 |
| 20260508212719 | 13 | 270 | 0.0 | 3.2 | 0.00 | 0.00 | 0.00 | 36 | 1010.0 |
| 20260508212208 | 13 | 315 | 0.0 | 3.2 | 0.00 | 0.00 | 0.00 | 34 | 1010.0 |
| 20260508211659 | 14 | 45 | 0.0 | 6.4 | 0.00 | 0.00 | 0.00 | 32 | 1009.9 |
| 20260508211151 | 15 | 293 | 0.0 | 8.0 | 0.00 | 0.00 | 0.00 | 30 | 1009.9 |
| 20260508210638 | 16 | 0 | 0.0 | 8.0 | 0.00 | 0.00 | 0.00 | 27 | 1010.0 |
| 20260508210128 | 17 | 315 | 3.2 | 6.4 | 0.00 | 0.00 | 0.00 | 25 | 1010.0 |
| 20260508205618 | 17 | 225 | 1.6 | 6.4 | 0.00 | 0.00 | 0.00 | 24 | 1009.8 |
| 20260508205609 | 17 | 225 | 0.0 | 8.0 | 0.00 | 0.00 | 0.00 | 24 | 1009.8 |
| 20260508204601 | 17 | 225 | 0.0 | 14.5 | 0.00 | 0.00 | 0.00 | 23 | 1009.8 |
| 20260508204047 | 17 | 225 | 6.4 | 16.1 | 0.00 | 0.00 | 0.00 | 21 | 1009.9 |
| 20260508203537 | 17 | 180 | 6.4 | 17.7 | 0.00 | 0.00 | 0.00 | 23 | 1009.8 |
| 20260508203027 | 18 | 270 | 6.4 | 17.7 | 0.00 | 0.00 | 0.00 | 23 | 1009.9 |
| 20260508203017 | 18 | 0 | 3.2 | 12.9 | 0.00 | 0.00 | 0.00 | 23 | 1009.8 |
| 20260508202010 | 18 | 135 | 6.4 | 20.9 | 0.00 | 0.00 | 0.00 | 22 | 1009.6 |
| 20260508201457 | 18 | 225 | 6.4 | 20.9 | 0.00 | 0.00 | 0.00 | 22 | 1009.8 |
| 20260508200947 | 18 | 225 | 4.8 | 19.3 | 0.00 | 0.00 | 0.00 | 22 | 1009.7 |
| 20260508200436 | 18 | 225 | 6.4 | 12.9 | 0.00 | 0.00 | 0.00 | 22 | 1009.7 |
| 20260508195929 | 18 | 270 | 6.4 | 17.7 | 0.00 | 0.00 | 0.00 | 23 | 1009.6 |
| 20260508195419 | 18 | 135 | 6.4 | 17.7 | 0.00 | 0.00 | 0.00 | 22 | 1009.6 |
| 20260508195406 | 18 | 270 | 9.7 | 17.7 | 0.00 | 0.00 | 0.00 | 22 | 1009.6 |
| 20260508194356 | 18 | 315 | 9.7 | 25.7 | 0.00 | 0.00 | 0.00 | 23 | 1009.7 |
| 20260508193845 | 17 | 225 | 17.7 | 25.7 | 0.00 | 0.00 | 0.00 | 23 | 1009.5 |
| 20260508193836 | 18 | 315 | 6.4 | 24.1 | 0.00 | 0.00 | 0.00 | 22 | 1009.6 |
| 20260508192828 | 18 | 225 | 6.4 | 17.7 | 0.00 | 0.00 | 0.00 | 22 | 1009.6 |
| 20260508192315 | 18 | 293 | 6.4 | 17.7 | 0.00 | 0.00 | 0.00 | 23 | 1009.7 |
| 20260508192249 | 18 | 225 | 6.4 | 27.4 | 0.00 | 0.00 | 0.00 | 22 | 1010.0 |
| 20260508191858 | 18 | 180 | 4.8 | 16.1 | 0.00 | 0.00 | 0.00 | 22 | 1009.9 |
| 20260508191352 | 18 | 315 | 6.4 | 27.4 | 0.00 | 0.00 | 0.00 | 22 | 1009.9 |
| 20260508190740 | 18 | 225 | 8.0 | 16.1 | 0.00 | 0.00 | 0.00 | 22 | 1009.9 |
| 20260508185724 | 18 | 270 | 3.2 | 19.3 | 0.00 | 0.00 | 0.00 | 22 | 1010.2 |
| 20260508185214 | 18 | 158 | 12.9 | 22.5 | 0.00 | 0.00 | 0.00 | 22 | 1010.3 |
| 20260508184704 | 18 | 225 | 11.3 | 27.4 | 0.00 | 0.00 | 0.00 | 22 | 1010.3 |
| 20260508184154 | 17 | 315 | 12.9 | 27.4 | 0.00 | 0.00 | 0.00 | 21 | 1010.2 |
| 20260508183648 | 17 | 315 | 11.3 | 27.4 | 0.00 | 0.00 | 0.00 | 18 | 1010.3 |
| 20260508183634 | 17 | 270 | 6.4 | 24.1 | 0.00 | 0.00 | 0.00 | 21 | 1010.6 |
| 20260508183124 | 17 | 180 | 12.9 | 24.1 | 0.00 | 0.00 | 0.00 | 18 | 1010.6 |
| 20260508182614 | 17 | 225 | 12.9 | 22.5 | 0.00 | 0.00 | 0.00 | 18 | 1010.6 |
| 20260508181603 | 17 | 90 | 11.3 | 25.7 | 0.00 | 0.00 | 0.00 | 18 | 1010.6 |
| 20260508181057 | 17 | 225 | 9.7 | 25.7 | 0.00 | 0.00 | 0.00 | 18 | 1010.6 |
| 20260508180543 | 17 | 293 | 17.7 | 22.5 | 0.00 | 0.00 | 0.00 | 19 | 1010.6 |
| 20260508180534 | 17 | 225 | 6.4 | 17.7 | 0.00 | 0.00 | 0.00 | 19 | 1010.7 |
| 20260508180023 | 17 | 225 | 6.4 | 19.3 | 0.00 | 0.00 | 0.00 | 19 | 1010.8 |
| 20260508175013 | 17 | 225 | 14.5 | 19.3 | 0.00 | 0.00 | 0.00 | 19 | 1011.0 |
| 20260508174506 | 17 | 225 | 6.4 | 17.7 | 0.00 | 0.00 | 0.00 | 19 | 1011.0 |
| 20260508173952 | 17 | 225 | 6.4 | 27.4 | 0.00 | 0.00 | 0.00 | 20 | 1011.1 |
| 20260508173443 | 17 | 315 | 11.3 | 27.4 | 0.00 | 0.00 | 0.00 | 19 | 1011.2 |
| 20260508173434 | 17 | 225 | 9.7 | 20.9 | 0.00 | 0.00 | 0.00 | 20 | 1011.2 |
| 20260508172422 | 17 | 180 | 11.3 | 24.1 | 0.00 | 0.00 | 0.00 | 20 | 1011.2 |
| 20260508171914 | 16 | 270 | 12.9 | 24.1 | 0.00 | 0.00 | 0.00 | 21 | 1011.3 |
| 20260508171402 | 16 | 270 | 12.9 | 25.7 | 0.00 | 0.00 | 0.00 | 21 | 1011.3 |
| 20260508170851 | 16 | 225 | 12.9 | 25.7 | 0.00 | 0.00 | 0.00 | 21 | 1011.4 |
| 20260508170341 | 16 | 180 | 8.0 | 22.5 | 0.00 | 0.00 | 0.00 | 21 | 1011.6 |
| 20260508165832 | 16 | 225 | 11.3 | 22.5 | 0.00 | 0.00 | 0.00 | 22 | 1011.5 |
| 20260508165324 | 16 | 180 | 12.9 | 22.5 | 0.00 | 0.00 | 0.00 | 22 | 1011.7 |
| 20260508165306 | 16 | 225 | 11.3 | 24.1 | 0.00 | 0.00 | 0.00 | 22 | 1012.1 |
| 20260508164907 | 16 | 270 | 6.4 | 24.1 | 0.00 | 0.00 | 0.00 | 22 | 1011.9 |
| 20260508163751 | 16 | 225 | 12.9 | 20.9 | 0.00 | 0.00 | 0.00 | 21 | 1012.3 |
| 20260508163241 | 16 | 248 | 11.3 | 24.1 | 0.00 | 0.00 | 0.00 | 22 | 1012.3 |
| 20260508162734 | 16 | 315 | 12.9 | 24.1 | 0.00 | 0.00 | 0.00 | 23 | 1012.1 |
| 20260508162221 | 16 | 180 | 9.7 | 24.1 | 0.00 | 0.00 | 0.00 | 23 | 1012.3 |
| 20260508161714 | 16 | 225 | 3.2 | 27.4 | 0.00 | 0.00 | 0.00 | 24 | 1012.3 |
| 20260508161200 | 16 | 225 | 14.5 | 27.4 | 0.00 | 0.00 | 0.00 | 24 | 1012.3 |
| 20260508161151 | 16 | 225 | 6.4 | 27.4 | 0.00 | 0.00 | 0.00 | 26 | 1012.4 |
| 20260508160144 | 16 | 225 | 14.5 | 27.4 | 0.00 | 0.00 | 0.00 | 23 | 1012.7 |
| 20260508155629 | 16 | 225 | 3.2 | 24.1 | 0.00 | 0.03 | 0.00 | 26 | 1012.5 |
| 20260508155120 | 15 | 180 | 6.4 | 24.1 | 0.00 | 0.03 | 0.00 | 25 | 1012.6 |
| 20260508155111 | 16 | 225 | 12.9 | 25.7 | 0.00 | 0.03 | 0.00 | 25 | 1012.7 |
| 20260508154059 | 15 | 90 | 8.0 | 25.7 | 0.00 | 0.03 | 0.00 | 27 | 1012.7 |
| 20260508154052 | 16 | 180 | 6.4 | 27.4 | 0.00 | 0.03 | 0.00 | 25 | 1012.6 |
| 20260508153047 | 15 | 180 | 6.4 | 25.7 | 0.00 | 0.05 | 0.00 | 30 | 1012.8 |
| 20260508153039 | 16 | 0 | 6.4 | 27.4 | 0.00 | 0.05 | 0.00 | 27 | 1012.8 |
| 20260508152519 | 16 | 135 | 11.3 | 25.7 | 0.00 | 0.10 | 0.00 | 29 | 1012.9 |
| 20260508152008 | 15 | 135 | 3.2 | 20.9 | 0.00 | 0.15 | 0.00 | 30 | 1013.0 |
| 20260508151001 | 15 | 45 | 3.2 | 20.9 | 0.00 | 0.18 | 0.00 | 30 | 1013.2 |
| 20260508150448 | 15 | 225 | 11.3 | 19.3 | 0.00 | 0.23 | 0.00 | 30 | 1013.1 |
| 20260508145938 | 15 | 270 | 3.2 | 24.1 | 0.00 | 0.28 | 0.00 | 31 | 1013.3 |
| 20260508145928 | 15 | 225 | 8.0 | 25.7 | 0.00 | 0.30 | 0.00 | 31 | 1013.3 |
| 20260508144918 | 14 | 315 | 11.3 | 25.7 | 0.00 | 0.30 | 0.00 | 32 | 1013.3 |
| 20260508144411 | 14 | 225 | 9.7 | 27.4 | 0.00 | 0.30 | 0.00 | 32 | 1013.4 |
| 20260508143857 | 14 | 225 | 12.9 | 29.0 | 0.00 | 0.30 | 0.00 | 31 | 1013.5 |
| 20260508143347 | 14 | 225 | 19.3 | 29.0 | 0.00 | 0.30 | 0.00 | 31 | 1013.4 |
| 20260508142837 | 14 | 180 | 6.4 | 27.4 | 0.00 | 0.30 | 0.00 | 31 | 1013.4 |
| 20260508142327 | 14 | 180 | 14.5 | 27.4 | 0.00 | 0.30 | 0.00 | 31 | 1013.8 |
| 20260508141820 | 13 | 315 | 3.2 | 22.5 | 0.00 | 0.30 | 0.00 | 32 | 1013.7 |
| 20260508141306 | 14 | 180 | 16.1 | 22.5 | 0.00 | 0.30 | 0.00 | 32 | 1013.9 |
| 20260508140757 | 14 | 270 | 12.9 | 22.5 | 0.00 | 0.30 | 0.00 | 33 | 1013.9 |
| 20260508140247 | 13 | 225 | 6.4 | 27.4 | 0.00 | 0.30 | 0.00 | 33 | 1013.9 |
| 20260508135737 | 13 | 270 | 14.5 | 27.4 | 0.00 | 0.30 | 0.00 | 33 | 1013.9 |
| 20260508135230 | 13 | 315 | 11.3 | 22.5 | 0.00 | 0.30 | 0.00 | 33 | 1013.9 |
| 20260508134715 | 13 | 270 | 9.7 | 20.9 | 0.00 | 0.30 | 0.00 | 35 | 1013.8 |
| 20260508134707 | 13 | 225 | 11.3 | 24.1 | 0.00 | 0.30 | 0.00 | 36 | 1014.1 |
| 20260508133656 | 12 | 270 | 6.4 | 27.4 | 0.00 | 0.30 | 0.00 | 34 | 1013.9 |
| 20260508133145 | 12 | 0 | 8.0 | 27.4 | 0.00 | 0.30 | 0.00 | 35 | 1013.7 |
| 20260508132639 | 12 | 225 | 12.9 | 24.1 | 0.00 | 0.30 | 0.00 | 35 | 1013.8 |
| 20260508132125 | 12 | 248 | 6.4 | 30.6 | 0.00 | 0.30 | 0.00 | 35 | 1013.7 |
| 20260508131615 | 12 | 293 | 6.4 | 30.6 | 0.00 | 0.30 | 0.00 | 35 | 1013.7 |
| 20260508131105 | 12 | 225 | 12.9 | 27.4 | 0.00 | 0.36 | 0.00 | 34 | 1013.6 |
| 20260508130554 | 13 | 0 | 8.0 | 17.7 | 0.00 | 0.38 | 0.00 | 37 | 1013.6 |
| 20260508125535 | 12 | 270 | 3.2 | 17.7 | 0.00 | 0.38 | 0.00 | 39 | 1013.6 |
| 20260508125516 | 12 | 315 | 6.4 | 20.9 | 0.00 | 0.38 | 0.00 | 41 | 1013.5 |
| 20260508125121 | 12 | 225 | 4.8 | 17.7 | 0.00 | 0.38 | 0.00 | 41 | 1013.4 |
| 20260508124004 | 12 | 315 | 9.7 | 22.5 | 0.00 | 0.38 | 0.00 | 41 | 1013.4 |
| 20260508123501 | 12 | 158 | 6.4 | 22.5 | 0.00 | 0.38 | 0.00 | 41 | 1013.5 |
| 20260508122943 | 12 | 315 | 3.2 | 16.1 | 0.00 | 0.38 | 0.00 | 42 | 1013.4 |
| 20260508122433 | 11 | 225 | 3.2 | 17.7 | 0.00 | 0.38 | 0.00 | 43 | 1013.4 |
| 20260508121923 | 11 | 45 | 3.2 | 17.7 | 0.00 | 0.38 | 0.00 | 43 | 1013.3 |
| 20260508121907 | 11 | 270 | 3.2 | 17.7 | 0.00 | 0.38 | 0.00 | 46 | 1013.0 |
| 20260508121513 | 11 | 225 | 3.2 | 12.9 | 0.00 | 0.38 | 0.00 | 45 | 1013.3 |
| 20260508120353 | 11 | 315 | 4.8 | 17.7 | 0.00 | 0.38 | 0.00 | 47 | 1013.0 |
| 20260508115843 | 11 | 225 | 3.2 | 11.3 | 0.00 | 0.38 | 0.00 | 50 | 1013.0 |
| 20260508115333 | 10 | 315 | 0.0 | 8.0 | 0.00 | 0.38 | 0.00 | 51 | 1012.8 |
| 20260508114823 | 10 | 270 | 4.8 | 12.9 | 0.00 | 0.38 | 0.00 | 52 | 1012.9 |
| 20260508114316 | 10 | 225 | 3.2 | 12.9 | 0.00 | 0.38 | 0.00 | 53 | 1012.8 |
| 20260508113802 | 9 | 90 | 1.6 | 8.0 | 0.00 | 0.38 | 0.00 | 56 | 1012.5 |
| 20260508113252 | 8 | 315 | 1.6 | 8.0 | 0.00 | 0.38 | 0.00 | 59 | 1012.6 |
| 20260508112742 | 7 | 315 | 1.6 | 8.0 | 0.00 | 0.38 | 0.00 | 59 | 1012.6 |
| 20260508112231 | 7 | 270 | 3.2 | 6.4 | 0.00 | 0.38 | 0.00 | 59 | 1012.6 |
| 20260508111724 | 7 | 135 | 1.6 | 11.3 | 0.00 | 0.38 | 0.00 | 59 | 1012.6 |
| 20260508111212 | 6 | 315 | 1.6 | 11.3 | 0.00 | 0.38 | 0.00 | 60 | 1012.7 |
| 20260508110701 | 6 | 135 | 3.2 | 8.0 | 0.00 | 0.38 | 0.00 | 59 | 1012.5 |
| 20260508110151 | 7 | 315 | 3.2 | 8.0 | 0.00 | 0.38 | 0.00 | 58 | 1012.4 |
| 20260508105641 | 7 | 315 | 3.2 | 8.0 | 0.00 | 0.38 | 0.00 | 57 | 1012.0 |
| 20260508105134 | 7 | 0 | 1.6 | 12.9 | 0.00 | 0.38 | 0.00 | 56 | 1012.1 |
| 20260508104620 | 7 | 225 | 4.8 | 12.9 | 0.00 | 0.38 | 0.00 | 55 | 1011.8 |
| 20260508104111 | 7 | 225 | 3.2 | 11.3 | 0.00 | 0.38 | 0.00 | 54 | 1011.7 |
| 20260508103600 | 7 | 68 | 1.6 | 16.1 | 0.00 | 0.38 | 0.00 | 53 | 1011.7 |
| 20260508103050 | 7 | 180 | 3.2 | 16.1 | 0.00 | 0.38 | 0.00 | 52 | 1011.6 |
| 20260508102543 | 7 | 270 | 11.3 | 16.1 | 0.00 | 0.38 | 0.00 | 52 | 1011.4 |
| 20260508102531 | 7 | 135 | 3.2 | 14.5 | 0.00 | 0.38 | 0.00 | 53 | 1011.3 |
| 20260508102011 | 8 | 248 | 6.4 | 16.1 | 0.00 | 0.38 | 0.00 | 53 | 1011.3 |
| 20260508101616 | 8 | 225 | 6.4 | 16.1 | 0.00 | 0.38 | 0.00 | 53 | 1011.3 |
| 20260508100459 | 8 | 270 | 3.2 | 16.1 | 0.00 | 0.38 | 0.00 | 53 | 1011.4 |
| 20260508095953 | 8 | 225 | 6.4 | 16.1 | 0.00 | 0.38 | 0.00 | 53 | 1011.2 |
| 20260508095940 | 8 | 270 | 3.2 | 17.7 | 0.00 | 0.38 | 0.00 | 53 | 1011.1 |
| 20260508095429 | 8 | 135 | 3.2 | 22.5 | 0.00 | 0.38 | 0.00 | 53 | 1011.0 |
| 20260508094419 | 8 | 225 | 6.4 | 22.5 | 0.00 | 0.38 | 0.00 | 54 | 1010.8 |
| 20260508093908 | 7 | 135 | 6.4 | 19.3 | 0.00 | 0.38 | 0.00 | 55 | 1010.7 |
| 20260508093902 | 7 | 23 | 4.8 | 19.3 | 0.00 | 0.38 | 0.00 | 55 | 1010.8 |
| 20260508092848 | 7 | 315 | 6.4 | 19.3 | 0.00 | 0.38 | 0.00 | 56 | 1010.7 |
| 20260508092338 | 7 | 135 | 6.4 | 14.5 | 0.00 | 0.38 | 0.00 | 56 | 1010.7 |
| 20260508092328 | 7 | 225 | 6.4 | 16.1 | 0.00 | 0.38 | 0.00 | 56 | 1010.7 |
| 20260508091819 | 7 | 180 | 4.8 | 24.1 | 0.00 | 0.38 | 0.00 | 56 | 1010.6 |
| 20260508090811 | 7 | 225 | 12.9 | 24.1 | 0.00 | 0.38 | 0.00 | 56 | 1010.4 |
| 20260508090258 | 8 | 225 | 3.2 | 16.1 | 0.00 | 0.38 | 0.00 | 55 | 1010.4 |
| 20260508085747 | 8 | 225 | 9.7 | 17.7 | 0.00 | 0.38 | 0.00 | 55 | 1010.4 |
| 20260508085241 | 8 | 270 | 6.4 | 17.7 | 0.00 | 0.38 | 0.00 | 56 | 1010.3 |
| 20260508085229 | 8 | 180 | 3.2 | 17.7 | 0.00 | 0.38 | 0.00 | 55 | 1010.3 |
| 20260508084233 | 8 | 90 | 4.8 | 17.7 | 0.00 | 0.38 | 0.00 | 55 | 1010.2 |
| 20260508083706 | 8 | 203 | 9.7 | 16.1 | 0.00 | 0.38 | 0.00 | 54 | 1010.1 |
| 20260508083238 | 8 | 135 | 4.8 | 17.7 | 0.00 | 0.43 | 0.00 | 54 | 1009.8 |
| 20260508083157 | 8 | 180 | 6.4 | 16.1 | 0.00 | 0.38 | 0.00 | 54 | 1010.0 |
| 20260508082647 | 8 | 180 | 6.4 | 17.7 | 0.00 | 0.43 | 0.00 | 54 | 1009.7 |
| 20260508082631 | 8 | 180 | 3.2 | 22.5 | 0.00 | 0.43 | 0.00 | 54 | 1009.6 |
| 20260508081116 | 8 | 135 | 9.7 | 22.5 | 0.00 | 0.43 | 0.00 | 54 | 1009.7 |
| 20260508080606 | 8 | 203 | 6.4 | 19.3 | 0.00 | 0.46 | 0.00 | 54 | 1009.7 |
| 20260508080100 | 8 | 135 | 6.4 | 17.7 | 0.00 | 0.53 | 0.00 | 55 | 1009.5 |
| 20260508080046 | 8 | 158 | 6.4 | 16.1 | 0.00 | 0.66 | 0.00 | 55 | 1009.6 |
| 20260508075039 | 8 | 158 | 6.4 | 24.1 | 0.00 | 0.76 | 0.00 | 55 | 1009.5 |
| 20260508074526 | 8 | 158 | 4.8 | 24.1 | 0.00 | 0.84 | 0.00 | 55 | 1009.4 |
| 20260508074517 | 8 | 180 | 9.7 | 24.1 | 0.00 | 0.84 | 0.00 | 55 | 1009.1 |
| 20260508073505 | 8 | 225 | 12.9 | 24.1 | 0.00 | 0.89 | 0.00 | 55 | 1009.1 |
| 20260508072955 | 8 | 135 | 8.0 | 24.1 | 0.00 | 0.94 | 0.00 | 55 | 1009.2 |
| 20260508072448 | 8 | 225 | 8.0 | 32.2 | 0.00 | 0.94 | 0.00 | 56 | 1009.1 |
| 20260508071934 | 8 | 180 | 11.3 | 32.2 | 0.00 | 0.94 | 0.00 | 56 | 1009.2 |
| 20260508071424 | 8 | 180 | 22.5 | 30.6 | 0.00 | 0.94 | 0.00 | 56 | 1009.3 |
| 20260508070914 | 8 | 203 | 9.7 | 24.1 | 0.00 | 0.94 | 0.00 | 56 | 1009.3 |
| 20260508070417 | 8 | 180 | 12.9 | 29.0 | 0.00 | 0.94 | 0.00 | 56 | 1009.2 |
| 20260508065857 | 8 | 225 | 11.3 | 29.0 | 0.00 | 0.94 | 0.00 | 57 | 1009.1 |
| 20260508065344 | 8 | 225 | 12.9 | 25.7 | 0.00 | 0.94 | 0.00 | 61 | 1009.1 |
| 20260508064834 | 7 | 180 | 9.7 | 24.1 | 0.00 | 0.99 | 0.00 | 62 | 1009.1 |
| 20260508064324 | 7 | 315 | 8.0 | 16.1 | 0.00 | 1.02 | 0.00 | 64 | 1009.2 |
| 20260508063826 | 7 | 180 | 8.0 | 14.5 | 0.00 | 1.02 | 0.00 | 64 | 1009.2 |
| 20260508063306 | 7 | 90 | 0.0 | 11.3 | 0.00 | 1.02 | 0.00 | 62 | 1009.3 |
| 20260508062753 | 7 | 135 | 1.6 | 11.3 | 0.00 | 1.02 | 0.00 | 61 | 1009.5 |
| 20260508062243 | 7 | 270 | 3.2 | 11.3 | 0.00 | 1.02 | 0.00 | 61 | 1009.4 |
| 20260508061733 | 7 | 225 | 6.4 | 11.3 | 0.00 | 1.02 | 0.00 | 61 | 1009.3 |
| 20260508061223 | 7 | 270 | 3.2 | 12.9 | 0.00 | 1.02 | 0.00 | 62 | 1009.4 |
| 20260508060716 | 7 | 180 | 3.2 | 16.1 | 0.00 | 1.02 | 0.00 | 65 | 1009.5 |
| 20260508060203 | 7 | 270 | 4.8 | 16.1 | 0.00 | 1.02 | 0.00 | 66 | 1009.7 |
| 20260508055652 | 7 | 180 | 4.8 | 12.9 | 0.00 | 1.02 | 0.00 | 68 | 1009.8 |
| 20260508055142 | 6 | 315 | 3.2 | 9.7 | 0.00 | 1.02 | 0.00 | 69 | 1010.1 |
| 20260508054632 | 6 | 225 | 6.4 | 8.0 | 0.00 | 1.02 | 0.00 | 69 | 1010.1 |
| 20260508054126 | 7 | 248 | 3.2 | 9.7 | 0.00 | 1.02 | 0.00 | 67 | 1010.2 |
| 20260508053612 | 7 | 293 | 3.2 | 11.3 | 0.00 | 1.02 | 0.00 | 67 | 1010.0 |
| 20260508053102 | 7 | 135 | 3.2 | 12.9 | 0.00 | 1.02 | 0.00 | 67 | 1009.9 |
| 20260508052552 | 7 | 315 | 4.8 | 12.9 | 0.00 | 1.02 | 0.00 | 67 | 1010.1 |
| 20260508052041 | 7 | 270 | 4.8 | 12.9 | 0.00 | 1.02 | 0.00 | 68 | 1010.1 |
| 20260508051535 | 7 | 0 | 6.4 | 12.9 | 0.00 | 1.02 | 0.00 | 67 | 1010.3 |
| 20260508051045 | 7 | 225 | 1.6 | 9.7 | 0.00 | 1.02 | 0.00 | 67 | 1010.3 |
| 20260508050512 | 7 | 270 | 3.2 | 11.3 | 0.00 | 1.02 | 0.00 | 67 | 1010.5 |
| 20260508050501 | 7 | 315 | 3.2 | 11.3 | 0.00 | 1.02 | 0.00 | 67 | 1010.5 |
| 20260508045451 | 7 | 315 | 3.2 | 9.7 | 0.00 | 1.02 | 0.00 | 67 | 1010.5 |
| 20260508044943 | 7 | 270 | 1.6 | 9.7 | 0.00 | 1.02 | 0.00 | 68 | 1010.3 |
| 20260508044430 | 7 | 315 | 3.2 | 9.7 | 0.00 | 1.02 | 0.00 | 68 | 1010.3 |
| 20260508043921 | 7 | 45 | 3.2 | 12.9 | 0.00 | 1.02 | 0.00 | 69 | 1010.2 |
| 20260508043411 | 7 | 315 | 3.2 | 14.5 | 0.00 | 1.02 | 0.00 | 70 | 1010.2 |
| 20260508042901 | 6 | 315 | 6.4 | 14.5 | 0.00 | 1.02 | 0.00 | 72 | 1010.2 |
| 20260508042353 | 6 | 270 | 6.4 | 14.5 | 0.00 | 1.02 | 0.00 | 73 | 1010.1 |
| 20260508041840 | 6 | 315 | 6.4 | 9.7 | 0.00 | 1.02 | 0.00 | 73 | 1010.1 |
| 20260508041831 | 6 | 315 | 4.8 | 6.4 | 0.00 | 1.02 | 0.00 | 72 | 1009.9 |
| 20260508040819 | 6 | 0 | 3.2 | 8.0 | 0.00 | 1.02 | 0.00 | 71 | 1009.7 |
| 20260508040309 | 6 | 293 | 3.2 | 8.0 | 0.00 | 1.02 | 0.00 | 70 | 1009.8 |
| 20260508035803 | 7 | 315 | 3.2 | 8.0 | 0.00 | 1.02 | 0.00 | 69 | 1009.9 |
| 20260508035750 | 7 | 0 | 3.2 | 8.0 | 0.00 | 1.02 | 0.00 | 69 | 1009.8 |
| 20260508034739 | 7 | 315 | 6.4 | 8.0 | 0.00 | 1.02 | 0.00 | 69 | 1009.8 |
| 20260508034229 | 7 | 270 | 3.2 | 6.4 | 0.00 | 1.02 | 0.00 | 69 | 1009.7 |
| 20260508033718 | 7 | 315 | 3.2 | 6.4 | 0.00 | 1.02 | 0.00 | 69 | 1009.6 |
| 20260508033713 | 7 | 270 | 3.2 | 6.4 | 0.00 | 1.02 | 0.00 | 69 | 1009.5 |
| 20260508032659 | 7 | 270 | 1.6 | 8.0 | 0.00 | 1.02 | 0.00 | 69 | 1009.4 |
| 20260508032149 | 7 | 315 | 3.2 | 8.0 | 0.00 | 1.02 | 0.00 | 69 | 1009.4 |
| 20260508031638 | 7 | 270 | 3.2 | 9.7 | 0.00 | 1.02 | 0.00 | 69 | 1009.5 |
| 20260508031128 | 7 | 315 | 3.2 | 9.7 | 0.00 | 1.02 | 0.00 | 70 | 1009.5 |
| 20260508030621 | 7 | 0 | 3.2 | 6.4 | 0.00 | 1.02 | 0.00 | 70 | 1009.6 |
| 20260508030108 | 7 | 0 | 3.2 | 11.3 | 0.00 | 1.02 | 0.00 | 70 | 1009.7 |
| 20260508025558 | 7 | 293 | 4.8 | 11.3 | 0.00 | 1.02 | 1.02 | 70 | 1009.5 |
| 20260508025047 | 7 | 270 | 3.2 | 8.0 | 0.00 | 1.02 | 1.02 | 71 | 1009.5 |
| 20260508024537 | 7 | 293 | 6.4 | 9.7 | 0.00 | 1.02 | 1.02 | 70 | 1009.5 |
| 20260508024030 | 7 | 315 | 4.8 | 9.7 | 0.00 | 1.02 | 1.02 | 70 | 1009.4 |
| 20260508023517 | 7 | 315 | 3.2 | 6.4 | 0.00 | 1.02 | 1.02 | 69 | 1009.3 |
| 20260508023007 | 7 | 0 | 0.0 | 6.4 | 0.00 | 1.02 | 1.02 | 68 | 1009.0 |
| 20260508022457 | 7 | 270 | 3.2 | 8.0 | 0.00 | 1.02 | 1.02 | 67 | 1009.2 |
| 20260508022448 | 8 | 225 | 3.2 | 9.7 | 0.00 | 1.02 | 1.02 | 67 | 1009.4 |
| 20260508021440 | 8 | 293 | 1.6 | 9.7 | 0.00 | 1.02 | 1.02 | 66 | 1009.3 |
| 20260508020927 | 8 | 315 | 4.8 | 9.7 | 0.00 | 1.02 | 1.02 | 65 | 1009.5 |
| 20260508020918 | 8 | 315 | 1.6 | 6.4 | 0.00 | 1.02 | 1.02 | 65 | 1009.3 |
| 20260508015907 | 8 | 293 | 3.2 | 6.4 | 0.00 | 1.02 | 1.02 | 65 | 1009.5 |
| 20260508015355 | 8 | 180 | 1.6 | 6.4 | 0.00 | 1.02 | 1.02 | 65 | 1009.3 |
| 20260508014849 | 8 | 180 | 3.2 | 6.4 | 0.00 | 1.02 | 1.02 | 65 | 1009.7 |
| 20260508014335 | 8 | 315 | 1.6 | 6.4 | 0.00 | 1.02 | 1.02 | 65 | 1009.6 |
| 20260508013826 | 9 | 0 | 3.2 | 6.4 | 0.00 | 1.02 | 1.02 | 64 | 1009.5 |
| 20260508013820 | 9 | 338 | 0.0 | 4.8 | 0.00 | 1.02 | 1.02 | 63 | 1009.4 |
| 20260508012834 | 9 | 315 | 1.6 | 6.4 | 0.00 | 1.02 | 1.02 | 63 | 1009.5 |
| 20260508012258 | 9 | 180 | 3.2 | 6.4 | 0.00 | 1.02 | 1.02 | 63 | 1009.5 |
| 20260508012245 | 9 | 135 | 0.0 | 11.3 | 0.00 | 1.02 | 1.02 | 63 | 1009.4 |
| 20260508011235 | 9 | 225 | 4.8 | 11.3 | 0.00 | 1.02 | 1.02 | 63 | 1009.4 |
| 20260508010725 | 9 | 270 | 3.2 | 6.4 | 0.00 | 1.02 | 1.02 | 63 | 1009.5 |
| 20260508010716 | 10 | 315 | 3.2 | 6.4 | 0.00 | 1.02 | 1.02 | 62 | 1009.5 |
| 20260508005707 | 10 | 0 | 3.2 | 6.4 | 0.00 | 1.02 | 1.02 | 60 | 1009.4 |
| 20260508005154 | 10 | 270 | 3.2 | 6.4 | 0.00 | 1.02 | 1.02 | 60 | 1009.5 |
| 20260508004644 | 10 | 0 | 3.2 | 6.4 | 0.00 | 1.02 | 1.02 | 60 | 1009.2 |
| 20260508004134 | 10 | 338 | 1.6 | 6.4 | 0.00 | 1.02 | 1.02 | 60 | 1009.1 |
| 20260508003624 | 10 | 315 | 3.2 | 6.4 | 0.00 | 1.02 | 1.02 | 60 | 1009.1 |
| 20260508003117 | 10 | 270 | 1.6 | 6.4 | 0.00 | 1.02 | 1.02 | 59 | 1009.2 |
| 20260508002604 | 11 | 180 | 3.2 | 6.4 | 0.00 | 1.02 | 1.02 | 59 | 1009.2 |
| 20260508002053 | 11 | 0 | 1.6 | 6.4 | 0.00 | 1.02 | 1.02 | 57 | 1009.1 |
| 20260508002047 | 11 | 315 | 3.2 | 6.4 | 0.00 | 1.02 | 1.02 | 57 | 1009.1 |
| 20260508001033 | 11 | 270 | 0.0 | 6.4 | 0.00 | 1.02 | 1.02 | 56 | 1008.9 |
| 20260508001026 | 11 | 315 | 3.2 | 6.4 | 0.00 | 1.02 | 1.02 | 56 | 1008.9 |